#timestamp,LO_Frequency,Hit,StdDev 
1547946015.2,286047002.0,N
1547946035.0,286047004.2,N
1547946035.9,286047004.2,N
1547946055.8,286047004.0,N
1547946075.6,286047001.7,N
1547946095.4,286047006.0,N
1547946115.3,286047005.9,N
1547946135.1,286047008.0,N
1547946155.8,286047010.3,N
1547946175.7,286047010.8,N
1547946195.5,286047010.8,N
1547946215.4,286047010.7,N
1547946235.2,286047008.1,N
1547946255.0,286047010.7,N
1547946255.9,286047010.7,N
1547946275.8,286047010.6,N
1547946295.6,286047012.7,N
1547946315.4,286047020.4,N
1547946335.3,286047015.7,N
1547946355.1,286047016.0,N
1547946375.9,286047014.1,N
1547946395.7,286047013.4,N
1547946415.5,286047011.0,N
1547946435.4,286047013.2,N
1547946455.2,286047015.1,N
1547946475.0,286047018.8,Y
1547946475.9,286047018.8,P
1547946495.8,286047006.2,N
1547946515.6,286047008.6,N
1547946535.5,286047011.9,N
1547946555.3,286047013.0,N
1547946575.1,286047017.1,Y
1547946595.9,286047005.8,P
1547946615.7,286047001.9,N
1547946635.5,286047001.1,N
1547946655.4,286047002.1,N
1547946675.2,286047001.5,N
1547946695.1,286047000.4,N
1547946696.0,286047000.4,N
1547946715.8,286046999.5,N
1547946735.6,286046997.1,N
1547946755.5,286046997.2,N
1547946775.3,286046996.5,N
1547946795.1,286047001.0,N
1547946815.9,286046996.5,N
1547946835.7,286046997.4,N
1547946855.6,286046999.3,N
1547946875.4,286046996.5,N
1547946895.2,286046995.0,N
1547946915.1,286046997.8,N
1547946916.0,286046997.8,N
1547946935.8,286046997.9,N
1547946955.6,286046999.4,N
1547946975.5,286046998.4,N
1547946995.3,286047000.4,N
1547947015.2,286047004.0,N
1547947035.9,286047005.3,N
1547947055.7,286047005.7,N
1547947075.6,286047003.7,N
1547947095.4,286046999.9,N
1547947115.3,286047000.4,N
1547947135.1,286046998.4,N
1547947136.0,286046998.4,N
1547947155.8,286046997.2,N
1547947175.7,286047000.0,N
1547947195.5,286047004.4,N
1547947215.3,286047002.9,N
1547947235.2,286047008.7,Y
1547947255.0,286047011.2,P
1547947255.9,286047011.2,N
1547947275.8,286047010.6,N
1547947295.6,286047007.3,N
1547947315.4,286047007.5,N
1547947335.3,286047002.0,N
1547947355.1,286047004.4,N
1547947375.9,286047004.0,N
1547947395.7,286047002.4,N
1547947415.5,286047001.0,N
1547947435.4,286047000.8,N
1547947455.2,286047002.4,N
1547947505.1,286046998.7,E
1547947515.9,286047000.0,N
1547947535.7,286046998.6,P
1547947555.6,286046998.6,N
1547947575.4,286046999.1,N
1547947595.2,286046995.0,Y
1547947615.1,286047001.8,P
1547947616.0,286047001.8,N
1547947635.8,286047005.1,P
1547947655.7,286047005.4,N
1547947675.5,286047005.1,N
1547947695.3,286047006.8,N
1547947715.2,286047010.6,Y
1547947735.0,286047012.4,P
1547947735.9,286047012.4,N
1547947755.7,286047010.0,N
1547947775.6,286047011.2,Y
1547947795.4,286047005.1,P
1547947815.3,286047007.2,P
1547947835.1,286047005.9,P
1547947836.0,286047005.9,Y
1547947855.8,286046997.8,P
1547947875.7,286046994.8,N
1547947895.5,286046994.7,N
1547947915.4,286046991.7,N
1547947935.2,286046990.2,N
1547947955.0,286046991.2,N
1547947955.9,286046991.2,N
1547947975.8,286046990.7,N
1547947995.6,286046991.4,N
1547948015.4,286046989.8,N
1547948035.3,286046989.5,N
1547948055.1,286046985.3,Y
1547948075.9,286046998.0,P
1547948095.7,286047000.6,N
1547948115.5,286046998.3,N
1547948135.4,286046998.3,N
1547948155.2,286047001.2,N
1547948175.0,286047000.4,N
1547948175.9,286047000.4,N
1547948195.8,286046997.2,N
1547948215.6,286046995.6,N
1547948235.5,286046992.1,Y
1547948255.3,286046992.4,P
1547948275.1,286046993.1,N
1547948295.9,286046990.3,P
1547948315.7,286046993.0,N
1547948335.5,286046992.6,N
1547948355.4,286046990.1,Y
1547948375.2,286046999.5,P
1547948395.1,286046996.7,N
1547948396.0,286046996.7,N
1547948415.8,286046995.4,N
1547948435.6,286046996.7,N
1547948455.5,286046995.0,N
1547948475.3,286046996.2,N
1547948495.1,286046993.5,Y
1547948515.9,286046999.3,P
1547948535.7,286047002.6,N
1547948555.6,286047001.3,N
1547948575.4,286047003.7,N
1547948595.2,286047006.2,N
1547948615.1,286047008.8,N
1547948616.0,286047008.8,N
1547948635.8,286047007.0,N
1547948655.6,286047007.3,N
1547948675.5,286047009.1,N
1547948695.3,286047012.3,N
1547948715.2,286047012.0,N
1547948735.9,286047010.2,N
1547948755.7,286047009.0,N
1547948775.6,286047005.4,N
1547948795.4,286047003.6,N
1547948815.2,286047000.6,N
1547948835.1,286047002.8,N
1547948836.0,286047002.8,N
1547948855.8,286047003.1,N
1547948875.7,286047005.8,N
1547948895.5,286047004.0,N
1547948915.3,286047003.7,N
1547948935.2,286047002.3,N
1547948955.0,286047000.8,N
1547948955.9,286047000.8,N
1547948975.7,286046999.2,N
1547948995.6,286046996.5,N
1547949015.4,286047000.0,N
1547949035.3,286047003.5,N
1547949055.1,286047002.9,N
1547949056.0,286047002.9,N
1547949075.8,286047006.4,N
1547949095.7,286047007.3,N
1547949115.5,286047005.7,N
1547949135.3,286047001.3,N
1547949155.2,286047002.4,N
1547949175.0,286046999.8,N
1547949175.9,286046999.8,N
1547949195.8,286047001.5,N
1547949215.6,286047003.3,N
1547949235.4,286047007.0,N
1547949255.3,286047006.3,N
1547949275.1,286047005.1,N
1547949295.8,286047004.4,N
1547949315.7,286047004.1,N
1547949335.5,286047003.4,N
1547949355.4,286047005.9,N
1547949375.2,286047010.1,Y
1547949395.0,286047010.1,P
1547949395.9,286047010.1,N
1547949415.8,286047009.8,N
1547949435.6,286047012.3,Y
1547949455.4,286047002.3,P
1547949475.3,286047005.2,N
1547949495.1,286047005.8,N
1547949515.9,286047003.0,N
1547949535.7,286047003.9,N
1547949555.5,286046999.9,N
1547949575.4,286047000.6,N
1547949595.2,286047002.4,N
